owner,sensor,date,latitude,longitude,sea_surface_height_above_sea_level,qcFlag 
TCOON,ioos:station:TCOON:518:1,2017-10-01T00:18:00Z,29.5150,-94.5133,1.401,1111122 
TCOON,ioos:station:TCOON:518:1,2017-10-01T01:18:00Z,29.5150,-94.5133,1.346,1111122 
TCOON,ioos:station:TCOON:518:1,2017-10-01T02:18:00Z,29.5150,-94.5133,1.3,1111122 
TCOON,ioos:station:TCOON:518:1,2017-10-01T03:18:00Z,29.5150,-94.5133,1.27,1111122 
TCOON,ioos:station:TCOON:518:1,2017-10-01T04:18:00Z,29.5150,-94.5133,1.252,1111122 
TCOON,ioos:station:TCOON:518:1,2017-10-01T05:18:00Z,29.5150,-94.5133,1.273,1111122 
TCOON,ioos:station:TCOON:518:1,2017-10-01T06:18:00Z,29.5150,-94.5133,1.376,1111122 
TCOON,ioos:station:TCOON:518:1,2017-10-01T07:18:00Z,29.5150,-94.5133,1.45,1111122 
TCOON,ioos:station:TCOON:518:1,2017-10-01T08:18:00Z,29.5150,-94.5133,1.498,1111122 
TCOON,ioos:station:TCOON:518:1,2017-10-01T09:18:00Z,29.5150,-94.5133,1.556,1111122 
TCOON,ioos:station:TCOON:518:1,2017-10-01T10:18:00Z,29.5150,-94.5133,1.552,1111122 
TCOON,ioos:station:TCOON:518:1,2017-10-01T11:18:00Z,29.5150,-94.5133,1.599,1111122 
TCOON,ioos:station:TCOON:518:1,2017-10-01T12:18:00Z,29.5150,-94.5133,1.619,1111122 
TCOON,ioos:station:TCOON:518:1,2017-10-01T13:18:00Z,29.5150,-94.5133,1.634,1111122 
TCOON,ioos:station:TCOON:518:1,2017-10-01T14:18:00Z,29.5150,-94.5133,1.623,1111122 
TCOON,ioos:station:TCOON:518:1,2017-10-01T15:18:00Z,29.5150,-94.5133,1.625,1111122 
TCOON,ioos:station:TCOON:518:1,2017-10-01T16:18:00Z,29.5150,-94.5133,1.636,1111122 
TCOON,ioos:station:TCOON:518:1,2017-10-01T17:18:00Z,29.5150,-94.5133,1.636,1111122 
TCOON,ioos:station:TCOON:518:1,2017-10-01T18:18:00Z,29.5150,-94.5133,1.635,1111122 
TCOON,ioos:station:TCOON:518:1,2017-10-01T19:18:00Z,29.5150,-94.5133,1.638,1111122 
TCOON,ioos:station:TCOON:518:1,2017-10-01T20:18:00Z,29.5150,-94.5133,1.628,1111122 
TCOON,ioos:station:TCOON:518:1,2017-10-01T21:18:00Z,29.5150,-94.5133,1.635,1111122 
TCOON,ioos:station:TCOON:518:1,2017-10-01T22:18:00Z,29.5150,-94.5133,1.578,1111122 
TCOON,ioos:station:TCOON:518:1,2017-10-01T23:18:00Z,29.5150,-94.5133,1.532,1111122 
TCOON,ioos:station:TCOON:518:1,2017-10-02T00:18:00Z,29.5150,-94.5133,1.483,1111122 
TCOON,ioos:station:TCOON:518:1,2017-10-02T01:18:00Z,29.5150,-94.5133,1.44,1111122 
TCOON,ioos:station:TCOON:518:1,2017-10-02T02:18:00Z,29.5150,-94.5133,1.399,1111122 
TCOON,ioos:station:TCOON:518:1,2017-10-02T03:18:00Z,29.5150,-94.5133,1.381,1111122 
TCOON,ioos:station:TCOON:518:1,2017-10-02T04:18:00Z,29.5150,-94.5133,1.377,1111122 
TCOON,ioos:station:TCOON:518:1,2017-10-02T05:18:00Z,29.5150,-94.5133,1.376,1111122 
TCOON,ioos:station:TCOON:518:1,2017-10-02T06:48:00Z,29.5150,-94.5133,1.509,1111122 
TCOON,ioos:station:TCOON:518:1,2017-10-02T07:18:00Z,29.5150,-94.5133,1.566,1111122 
TCOON,ioos:station:TCOON:518:1,2017-10-02T08:18:00Z,29.5150,-94.5133,1.674,1111122 
TCOON,ioos:station:TCOON:518:1,2017-10-02T09:18:00Z,29.5150,-94.5133,1.716,1111122 
TCOON,ioos:station:TCOON:518:1,2017-10-02T10:18:00Z,29.5150,-94.5133,1.757,1111122 
TCOON,ioos:station:TCOON:518:1,2017-10-02T11:18:00Z,29.5150,-94.5133,1.8,1111122 
TCOON,ioos:station:TCOON:518:1,2017-10-02T12:18:00Z,29.5150,-94.5133,1.832,1111122 
TCOON,ioos:station:TCOON:518:1,2017-10-02T13:18:00Z,29.5150,-94.5133,1.815,1111122 
TCOON,ioos:station:TCOON:518:1,2017-10-02T14:18:00Z,29.5150,-94.5133,1.867,1111122 
TCOON,ioos:station:TCOON:518:1,2017-10-02T15:18:00Z,29.5150,-94.5133,1.862,1111122 
TCOON,ioos:station:TCOON:518:1,2017-10-02T16:18:00Z,29.5150,-94.5133,1.826,1111122 
TCOON,ioos:station:TCOON:518:1,2017-10-02T17:18:00Z,29.5150,-94.5133,1.811,1111122 
TCOON,ioos:station:TCOON:518:1,2017-10-02T18:18:00Z,29.5150,-94.5133,1.809,1111122 
TCOON,ioos:station:TCOON:518:1,2017-10-02T19:18:00Z,29.5150,-94.5133,1.785,1111122 
TCOON,ioos:station:TCOON:518:1,2017-10-02T20:18:00Z,29.5150,-94.5133,1.854,1111122 
TCOON,ioos:station:TCOON:518:1,2017-10-02T21:18:00Z,29.5150,-94.5133,1.886,1111122 
TCOON,ioos:station:TCOON:518:1,2017-10-02T22:18:00Z,29.5150,-94.5133,1.908,1111122 
TCOON,ioos:station:TCOON:518:1,2017-10-02T23:18:00Z,29.5150,-94.5133,1.873,1111122 
TCOON,ioos:station:TCOON:518:1,2017-10-03T00:18:00Z,29.5150,-94.5133,1.822,1111122 
TCOON,ioos:station:TCOON:518:1,2017-10-03T01:18:00Z,29.5150,-94.5133,1.711,1111122 
TCOON,ioos:station:TCOON:518:1,2017-10-03T02:18:00Z,29.5150,-94.5133,1.678,1111122 
TCOON,ioos:station:TCOON:518:1,2017-10-03T03:18:00Z,29.5150,-94.5133,1.682,1111122 
TCOON,ioos:station:TCOON:518:1,2017-10-03T04:18:00Z,29.5150,-94.5133,1.569,1111122 
TCOON,ioos:station:TCOON:518:1,2017-10-03T05:18:00Z,29.5150,-94.5133,1.512,1111122 
TCOON,ioos:station:TCOON:518:1,2017-10-03T06:18:00Z,29.5150,-94.5133,1.525,1111122 
TCOON,ioos:station:TCOON:518:1,2017-10-03T07:18:00Z,29.5150,-94.5133,1.678,1111122 
TCOON,ioos:station:TCOON:518:1,2017-10-03T08:18:00Z,29.5150,-94.5133,1.813,1111122 
TCOON,ioos:station:TCOON:518:1,2017-10-03T09:18:00Z,29.5150,-94.5133,1.914,1111122 
TCOON,ioos:station:TCOON:518:1,2017-10-03T11:30:00Z,29.5150,-94.5133,1.93,1111122 
TCOON,ioos:station:TCOON:518:1,2017-10-03T12:18:00Z,29.5150,-94.5133,1.969,1111122 
TCOON,ioos:station:TCOON:518:1,2017-10-03T13:18:00Z,29.5150,-94.5133,1.961,1111122 
TCOON,ioos:station:TCOON:518:1,2017-10-03T14:18:00Z,29.5150,-94.5133,1.976,1111122 
TCOON,ioos:station:TCOON:518:1,2017-10-03T15:18:00Z,29.5150,-94.5133,1.937,1111122 
TCOON,ioos:station:TCOON:518:1,2017-10-03T16:18:00Z,29.5150,-94.5133,1.926,1111122 
TCOON,ioos:station:TCOON:518:1,2017-10-03T17:18:00Z,29.5150,-94.5133,1.883,1111122 
TCOON,ioos:station:TCOON:518:1,2017-10-03T18:18:00Z,29.5150,-94.5133,1.908,1111122 
TCOON,ioos:station:TCOON:518:1,2017-10-03T19:18:00Z,29.5150,-94.5133,1.882,1111122 
TCOON,ioos:station:TCOON:518:1,2017-10-03T20:18:00Z,29.5150,-94.5133,1.932,1111122 
TCOON,ioos:station:TCOON:518:1,2017-10-03T21:18:00Z,29.5150,-94.5133,1.956,1111122 
TCOON,ioos:station:TCOON:518:1,2017-10-03T22:18:00Z,29.5150,-94.5133,1.942,1111122 
TCOON,ioos:station:TCOON:518:1,2017-10-03T23:18:00Z,29.5150,-94.5133,1.917,1111122 
TCOON,ioos:station:TCOON:518:1,2017-10-04T00:18:00Z,29.5150,-94.5133,1.861,1111122 
TCOON,ioos:station:TCOON:518:1,2017-10-04T01:18:00Z,29.5150,-94.5133,1.815,1111122 
TCOON,ioos:station:TCOON:518:1,2017-10-04T02:18:00Z,29.5150,-94.5133,1.773,1111122 
TCOON,ioos:station:TCOON:518:1,2017-10-04T03:18:00Z,29.5150,-94.5133,1.742,1111122 
TCOON,ioos:station:TCOON:518:1,2017-10-04T04:18:00Z,29.5150,-94.5133,1.763,1111122 
TCOON,ioos:station:TCOON:518:1,2017-10-04T05:18:00Z,29.5150,-94.5133,1.725,1111122 
TCOON,ioos:station:TCOON:518:1,2017-10-04T06:18:00Z,29.5150,-94.5133,1.671,1111122 
TCOON,ioos:station:TCOON:518:1,2017-10-04T07:18:00Z,29.5150,-94.5133,1.68,1111122 
TCOON,ioos:station:TCOON:518:1,2017-10-04T08:18:00Z,29.5150,-94.5133,1.769,1111122 
TCOON,ioos:station:TCOON:518:1,2017-10-04T09:18:00Z,29.5150,-94.5133,1.837,1111122 
TCOON,ioos:station:TCOON:518:1,2017-10-04T11:12:00Z,29.5150,-94.5133,1.998,1111122 
TCOON,ioos:station:TCOON:518:1,2017-10-04T12:18:00Z,29.5150,-94.5133,2.075,1111122 
TCOON,ioos:station:TCOON:518:1,2017-10-04T13:18:00Z,29.5150,-94.5133,2.07,1111122 
TCOON,ioos:station:TCOON:518:1,2017-10-04T14:18:00Z,29.5150,-94.5133,2.006,1111122 
TCOON,ioos:station:TCOON:518:1,2017-10-04T15:18:00Z,29.5150,-94.5133,1.954,1111122 
TCOON,ioos:station:TCOON:518:1,2017-10-04T16:18:00Z,29.5150,-94.5133,1.88,1111122 
TCOON,ioos:station:TCOON:518:1,2017-10-04T17:18:00Z,29.5150,-94.5133,1.839,1111122 
TCOON,ioos:station:TCOON:518:1,2017-10-04T18:18:00Z,29.5150,-94.5133,1.809,1111122 
TCOON,ioos:station:TCOON:518:1,2017-10-04T19:18:00Z,29.5150,-94.5133,1.805,1111122 
TCOON,ioos:station:TCOON:518:1,2017-10-04T20:18:00Z,29.5150,-94.5133,1.848,1111122 
TCOON,ioos:station:TCOON:518:1,2017-10-04T21:18:00Z,29.5150,-94.5133,1.861,1111122 
TCOON,ioos:station:TCOON:518:1,2017-10-04T22:18:00Z,29.5150,-94.5133,1.914,1111122 
TCOON,ioos:station:TCOON:518:1,2017-10-04T23:18:00Z,29.5150,-94.5133,1.932,1111122 
TCOON,ioos:station:TCOON:518:1,2017-10-05T00:18:00Z,29.5150,-94.5133,1.943,1111122 
TCOON,ioos:station:TCOON:518:1,2017-10-05T01:18:00Z,29.5150,-94.5133,1.933,1111122 
TCOON,ioos:station:TCOON:518:1,2017-10-05T02:18:00Z,29.5150,-94.5133,1.924,1111122 
TCOON,ioos:station:TCOON:518:1,2017-10-05T03:18:00Z,29.5150,-94.5133,1.908,1111122 
TCOON,ioos:station:TCOON:518:1,2017-10-05T04:18:00Z,29.5150,-94.5133,1.905,1111122 
TCOON,ioos:station:TCOON:518:1,2017-10-05T05:18:00Z,29.5150,-94.5133,1.9,1111122 
TCOON,ioos:station:TCOON:518:1,2017-10-05T06:18:00Z,29.5150,-94.5133,1.903,1111122 
TCOON,ioos:station:TCOON:518:1,2017-10-05T07:18:00Z,29.5150,-94.5133,1.886,1111122 
TCOON,ioos:station:TCOON:518:1,2017-10-05T08:18:00Z,29.5150,-94.5133,1.898,1111122 
TCOON,ioos:station:TCOON:518:1,2017-10-05T09:18:00Z,29.5150,-94.5133,1.929,1111122 
TCOON,ioos:station:TCOON:518:1,2017-10-05T10:18:00Z,29.5150,-94.5133,1.985,1111122 
TCOON,ioos:station:TCOON:518:1,2017-10-05T11:18:00Z,29.5150,-94.5133,2.016,1111122 
TCOON,ioos:station:TCOON:518:1,2017-10-05T12:18:00Z,29.5150,-94.5133,2.05,1111122 
TCOON,ioos:station:TCOON:518:1,2017-10-05T13:18:00Z,29.5150,-94.5133,2.052,1111122 
TCOON,ioos:station:TCOON:518:1,2017-10-05T14:18:00Z,29.5150,-94.5133,1.998,1111122 
TCOON,ioos:station:TCOON:518:1,2017-10-05T15:18:00Z,29.5150,-94.5133,1.943,1111122 
TCOON,ioos:station:TCOON:518:1,2017-10-05T16:18:00Z,29.5150,-94.5133,1.873,1111122 
TCOON,ioos:station:TCOON:518:1,2017-10-05T17:30:00Z,29.5150,-94.5133,1.805,1111122 
TCOON,ioos:station:TCOON:518:1,2017-10-05T18:24:00Z,29.5150,-94.5133,1.776,1111122 
TCOON,ioos:station:TCOON:518:1,2017-10-05T19:30:00Z,29.5150,-94.5133,1.785,1111122 
TCOON,ioos:station:TCOON:518:1,2017-10-05T20:18:00Z,29.5150,-94.5133,1.814,1111122 
TCOON,ioos:station:TCOON:518:1,2017-10-05T21:18:00Z,29.5150,-94.5133,1.855,1111122 
TCOON,ioos:station:TCOON:518:1,2017-10-05T22:18:00Z,29.5150,-94.5133,1.933,1111122 
TCOON,ioos:station:TCOON:518:1,2017-10-05T23:18:00Z,29.5150,-94.5133,1.988,1111122 
TCOON,ioos:station:TCOON:518:1,2017-10-06T00:18:00Z,29.5150,-94.5133,1.995,1111122 
TCOON,ioos:station:TCOON:518:1,2017-10-06T01:18:00Z,29.5150,-94.5133,1.99,1111122 
TCOON,ioos:station:TCOON:518:1,2017-10-06T02:18:00Z,29.5150,-94.5133,1.972,1111122 
TCOON,ioos:station:TCOON:518:1,2017-10-06T03:18:00Z,29.5150,-94.5133,1.967,1111122 
TCOON,ioos:station:TCOON:518:1,2017-10-06T04:18:00Z,29.5150,-94.5133,1.903,1111122 
TCOON,ioos:station:TCOON:518:1,2017-10-06T05:18:00Z,29.5150,-94.5133,1.829,1111122 
TCOON,ioos:station:TCOON:518:1,2017-10-06T06:18:00Z,29.5150,-94.5133,1.81,1111122 
TCOON,ioos:station:TCOON:518:1,2017-10-06T07:18:00Z,29.5150,-94.5133,1.768,1111122 
TCOON,ioos:station:TCOON:518:1,2017-10-06T08:18:00Z,29.5150,-94.5133,1.75,1111122 
TCOON,ioos:station:TCOON:518:1,2017-10-06T09:18:00Z,29.5150,-94.5133,1.764,1111122 
TCOON,ioos:station:TCOON:518:1,2017-10-06T10:18:00Z,29.5150,-94.5133,1.816,1111122 
TCOON,ioos:station:TCOON:518:1,2017-10-06T11:18:00Z,29.5150,-94.5133,1.859,1111122 
TCOON,ioos:station:TCOON:518:1,2017-10-06T12:18:00Z,29.5150,-94.5133,1.871,1111122 
TCOON,ioos:station:TCOON:518:1,2017-10-06T13:18:00Z,29.5150,-94.5133,1.879,1111122 
TCOON,ioos:station:TCOON:518:1,2017-10-06T14:18:00Z,29.5150,-94.5133,1.861,1111122 
TCOON,ioos:station:TCOON:518:1,2017-10-06T15:18:00Z,29.5150,-94.5133,1.821,1111122 
TCOON,ioos:station:TCOON:518:1,2017-10-06T16:18:00Z,29.5150,-94.5133,1.739,1111122 
TCOON,ioos:station:TCOON:518:1,2017-10-06T17:18:00Z,29.5150,-94.5133,1.675,1111122 
TCOON,ioos:station:TCOON:518:1,2017-10-06T18:18:00Z,29.5150,-94.5133,1.617,1111122 
TCOON,ioos:station:TCOON:518:1,2017-10-06T19:18:00Z,29.5150,-94.5133,1.632,1111122 
TCOON,ioos:station:TCOON:518:1,2017-10-06T20:18:00Z,29.5150,-94.5133,1.669,1111122 
TCOON,ioos:station:TCOON:518:1,2017-10-06T21:18:00Z,29.5150,-94.5133,1.722,1111122 
TCOON,ioos:station:TCOON:518:1,2017-10-06T22:18:00Z,29.5150,-94.5133,1.847,1111122 
TCOON,ioos:station:TCOON:518:1,2017-10-06T23:18:00Z,29.5150,-94.5133,1.92,1111122 
TCOON,ioos:station:TCOON:518:1,2017-10-07T00:18:00Z,29.5150,-94.5133,1.951,1111122 
TCOON,ioos:station:TCOON:518:1,2017-10-07T01:18:00Z,29.5150,-94.5133,1.986,1111122 
TCOON,ioos:station:TCOON:518:1,2017-10-07T02:18:00Z,29.5150,-94.5133,2.02,1111122 
TCOON,ioos:station:TCOON:518:1,2017-10-07T03:18:00Z,29.5150,-94.5133,2.02,1111122 
TCOON,ioos:station:TCOON:518:1,2017-10-07T04:18:00Z,29.5150,-94.5133,1.991,1111122 
TCOON,ioos:station:TCOON:518:1,2017-10-07T05:18:00Z,29.5150,-94.5133,1.946,1111122 
TCOON,ioos:station:TCOON:518:1,2017-10-07T06:18:00Z,29.5150,-94.5133,1.907,1111122 
TCOON,ioos:station:TCOON:518:1,2017-10-07T07:18:00Z,29.5150,-94.5133,1.877,1111122 
TCOON,ioos:station:TCOON:518:1,2017-10-07T08:18:00Z,29.5150,-94.5133,1.885,1111122 
TCOON,ioos:station:TCOON:518:1,2017-10-07T09:18:00Z,29.5150,-94.5133,1.893,1111122 
TCOON,ioos:station:TCOON:518:1,2017-10-07T10:18:00Z,29.5150,-94.5133,1.908,1111122 
TCOON,ioos:station:TCOON:518:1,2017-10-07T11:18:00Z,29.5150,-94.5133,1.992,1111122 
TCOON,ioos:station:TCOON:518:1,2017-10-07T12:18:00Z,29.5150,-94.5133,2.033,1111122 
TCOON,ioos:station:TCOON:518:1,2017-10-07T13:18:00Z,29.5150,-94.5133,2.043,1111122 
TCOON,ioos:station:TCOON:518:1,2017-10-07T14:18:00Z,29.5150,-94.5133,2.029,1111122 
TCOON,ioos:station:TCOON:518:1,2017-10-07T15:18:00Z,29.5150,-94.5133,1.986,1111122 
TCOON,ioos:station:TCOON:518:1,2017-10-07T16:18:00Z,29.5150,-94.5133,1.963,1111122 
TCOON,ioos:station:TCOON:518:1,2017-10-07T17:18:00Z,29.5150,-94.5133,1.908,1111122 
TCOON,ioos:station:TCOON:518:1,2017-10-07T18:18:00Z,29.5150,-94.5133,1.87,1111122 
TCOON,ioos:station:TCOON:518:1,2017-10-07T19:18:00Z,29.5150,-94.5133,1.826,1111122 
TCOON,ioos:station:TCOON:518:1,2017-10-07T20:18:00Z,29.5150,-94.5133,1.816,1111122 
TCOON,ioos:station:TCOON:518:1,2017-10-07T21:18:00Z,29.5150,-94.5133,1.828,1111122 
TCOON,ioos:station:TCOON:518:1,2017-10-07T22:18:00Z,29.5150,-94.5133,1.823,1111122 
TCOON,ioos:station:TCOON:518:1,2017-10-07T23:18:00Z,29.5150,-94.5133,1.903,1111122 
TCOON,ioos:station:TCOON:518:1,2017-10-08T00:18:00Z,29.5150,-94.5133,2.019,1111122 
TCOON,ioos:station:TCOON:518:1,2017-10-08T01:18:00Z,29.5150,-94.5133,2.092,1111122 
TCOON,ioos:station:TCOON:518:1,2017-10-08T02:18:00Z,29.5150,-94.5133,2.104,1111122 
TCOON,ioos:station:TCOON:518:1,2017-10-08T03:18:00Z,29.5150,-94.5133,2.1,1111122 
TCOON,ioos:station:TCOON:518:1,2017-10-08T04:18:00Z,29.5150,-94.5133,2.099,1111122 
TCOON,ioos:station:TCOON:518:1,2017-10-08T05:18:00Z,29.5150,-94.5133,2.059,1111122 
TCOON,ioos:station:TCOON:518:1,2017-10-08T06:18:00Z,29.5150,-94.5133,2.005,1111122 
TCOON,ioos:station:TCOON:518:1,2017-10-08T07:18:00Z,29.5150,-94.5133,1.948,1111122 
TCOON,ioos:station:TCOON:518:1,2017-10-08T08:18:00Z,29.5150,-94.5133,1.882,1111122 
TCOON,ioos:station:TCOON:518:1,2017-10-08T09:18:00Z,29.5150,-94.5133,1.88,1111122 
TCOON,ioos:station:TCOON:518:1,2017-10-08T10:18:00Z,29.5150,-94.5133,1.885,1111122 
TCOON,ioos:station:TCOON:518:1,2017-10-08T11:18:00Z,29.5150,-94.5133,1.899,1111122 
TCOON,ioos:station:TCOON:518:1,2017-10-08T12:18:00Z,29.5150,-94.5133,1.919,1111122 
TCOON,ioos:station:TCOON:518:1,2017-10-08T13:18:00Z,29.5150,-94.5133,1.887,1111122 
TCOON,ioos:station:TCOON:518:1,2017-10-08T14:18:00Z,29.5150,-94.5133,1.853,1111122 
TCOON,ioos:station:TCOON:518:1,2017-10-08T15:18:00Z,29.5150,-94.5133,1.822,1111122 
TCOON,ioos:station:TCOON:518:1,2017-10-08T16:18:00Z,29.5150,-94.5133,1.728,1111122 
TCOON,ioos:station:TCOON:518:1,2017-10-08T17:18:00Z,29.5150,-94.5133,1.67,1111122 
TCOON,ioos:station:TCOON:518:1,2017-10-08T18:18:00Z,29.5150,-94.5133,1.63,1111122 
TCOON,ioos:station:TCOON:518:1,2017-10-08T19:18:00Z,29.5150,-94.5133,1.596,1111122 
TCOON,ioos:station:TCOON:518:1,2017-10-08T20:18:00Z,29.5150,-94.5133,1.569,1111122 
TCOON,ioos:station:TCOON:518:1,2017-10-08T21:18:00Z,29.5150,-94.5133,1.603,1111122 
TCOON,ioos:station:TCOON:518:1,2017-10-08T22:18:00Z,29.5150,-94.5133,1.663,1111122 
TCOON,ioos:station:TCOON:518:1,2017-10-08T23:18:00Z,29.5150,-94.5133,1.751,1111122 
TCOON,ioos:station:TCOON:518:1,2017-10-09T00:18:00Z,29.5150,-94.5133,1.859,1111122 
TCOON,ioos:station:TCOON:518:1,2017-10-09T01:18:00Z,29.5150,-94.5133,1.919,1111122 
TCOON,ioos:station:TCOON:518:1,2017-10-09T02:18:00Z,29.5150,-94.5133,2.012,1111122 
TCOON,ioos:station:TCOON:518:1,2017-10-09T03:18:00Z,29.5150,-94.5133,2.043,1111122 
TCOON,ioos:station:TCOON:518:1,2017-10-09T04:18:00Z,29.5150,-94.5133,2.066,1111122 
TCOON,ioos:station:TCOON:518:1,2017-10-09T05:18:00Z,29.5150,-94.5133,2.051,1111122 
TCOON,ioos:station:TCOON:518:1,2017-10-09T06:18:00Z,29.5150,-94.5133,2.035,1111122 
TCOON,ioos:station:TCOON:518:1,2017-10-09T07:18:00Z,29.5150,-94.5133,2.022,1111122 
TCOON,ioos:station:TCOON:518:1,2017-10-09T08:18:00Z,29.5150,-94.5133,1.992,1111122 
TCOON,ioos:station:TCOON:518:1,2017-10-09T10:18:00Z,29.5150,-94.5133,1.926,1111122 
TCOON,ioos:station:TCOON:518:1,2017-10-09T11:18:00Z,29.5150,-94.5133,1.9,1111122 
TCOON,ioos:station:TCOON:518:1,2017-10-09T12:18:00Z,29.5150,-94.5133,1.884,1111122 
TCOON,ioos:station:TCOON:518:1,2017-10-09T13:18:00Z,29.5150,-94.5133,1.857,1111122 
TCOON,ioos:station:TCOON:518:1,2017-10-09T14:18:00Z,29.5150,-94.5133,1.84,1111122 
TCOON,ioos:station:TCOON:518:1,2017-10-09T15:18:00Z,29.5150,-94.5133,1.799,1111122 
TCOON,ioos:station:TCOON:518:1,2017-10-09T16:18:00Z,29.5150,-94.5133,1.746,1111122 
TCOON,ioos:station:TCOON:518:1,2017-10-09T17:24:00Z,29.5150,-94.5133,1.669,1111122 
TCOON,ioos:station:TCOON:518:1,2017-10-09T18:18:00Z,29.5150,-94.5133,1.599,1111122 
TCOON,ioos:station:TCOON:518:1,2017-10-09T19:18:00Z,29.5150,-94.5133,1.55,1111122 
TCOON,ioos:station:TCOON:518:1,2017-10-09T20:18:00Z,29.5150,-94.5133,1.501,1111122 
TCOON,ioos:station:TCOON:518:1,2017-10-09T21:18:00Z,29.5150,-94.5133,1.476,1111122 
TCOON,ioos:station:TCOON:518:1,2017-10-09T22:18:00Z,29.5150,-94.5133,1.5,1111122 
TCOON,ioos:station:TCOON:518:1,2017-10-09T23:18:00Z,29.5150,-94.5133,1.554,1111122 
TCOON,ioos:station:TCOON:518:1,2017-10-10T00:18:00Z,29.5150,-94.5133,1.653,1111122 
TCOON,ioos:station:TCOON:518:1,2017-10-10T01:18:00Z,29.5150,-94.5133,1.734,1111122 
TCOON,ioos:station:TCOON:518:1,2017-10-10T02:18:00Z,29.5150,-94.5133,1.79,1111122 
TCOON,ioos:station:TCOON:518:1,2017-10-10T03:18:00Z,29.5150,-94.5133,1.866,1111122 
TCOON,ioos:station:TCOON:518:1,2017-10-10T04:18:00Z,29.5150,-94.5133,1.895,1111122 
TCOON,ioos:station:TCOON:518:1,2017-10-10T05:18:00Z,29.5150,-94.5133,1.922,1111122 
TCOON,ioos:station:TCOON:518:1,2017-10-10T06:18:00Z,29.5150,-94.5133,1.922,1111122 
TCOON,ioos:station:TCOON:518:1,2017-10-10T07:18:00Z,29.5150,-94.5133,1.919,1111122 
TCOON,ioos:station:TCOON:518:1,2017-10-10T08:18:00Z,29.5150,-94.5133,1.931,1111122 
TCOON,ioos:station:TCOON:518:1,2017-10-10T09:18:00Z,29.5150,-94.5133,1.928,1111122 
TCOON,ioos:station:TCOON:518:1,2017-10-10T10:18:00Z,29.5150,-94.5133,1.917,1111122 
TCOON,ioos:station:TCOON:518:1,2017-10-10T11:18:00Z,29.5150,-94.5133,1.887,1111122 
TCOON,ioos:station:TCOON:518:1,2017-10-10T12:18:00Z,29.5150,-94.5133,1.895,1111122 
TCOON,ioos:station:TCOON:518:1,2017-10-10T13:18:00Z,29.5150,-94.5133,1.87,1111122 
TCOON,ioos:station:TCOON:518:1,2017-10-10T14:18:00Z,29.5150,-94.5133,1.866,1111122 
TCOON,ioos:station:TCOON:518:1,2017-10-10T15:18:00Z,29.5150,-94.5133,1.802,1111122 
TCOON,ioos:station:TCOON:518:1,2017-10-10T16:18:00Z,29.5150,-94.5133,1.681,1111122 
TCOON,ioos:station:TCOON:518:1,2017-10-10T17:18:00Z,29.5150,-94.5133,1.659,1111122 
TCOON,ioos:station:TCOON:518:1,2017-10-10T18:18:00Z,29.5150,-94.5133,1.62,1111122 
TCOON,ioos:station:TCOON:518:1,2017-10-10T19:18:00Z,29.5150,-94.5133,1.559,1111122 
TCOON,ioos:station:TCOON:518:1,2017-10-10T20:18:00Z,29.5150,-94.5133,1.504,1111122 
TCOON,ioos:station:TCOON:518:1,2017-10-10T21:18:00Z,29.5150,-94.5133,1.453,1111122 
TCOON,ioos:station:TCOON:518:1,2017-10-10T22:18:00Z,29.5150,-94.5133,1.412,1111122 
TCOON,ioos:station:TCOON:518:1,2017-10-10T23:18:00Z,29.5150,-94.5133,1.412,1111122 
TCOON,ioos:station:TCOON:518:1,2017-10-11T00:18:00Z,29.5150,-94.5133,1.404,1111122 
TCOON,ioos:station:TCOON:518:1,2017-10-11T01:18:00Z,29.5150,-94.5133,1.495,1111122 
TCOON,ioos:station:TCOON:518:1,2017-10-11T02:18:00Z,29.5150,-94.5133,1.612,1111122 
TCOON,ioos:station:TCOON:518:1,2017-10-11T03:18:00Z,29.5150,-94.5133,1.678,1111122 
TCOON,ioos:station:TCOON:518:1,2017-10-11T04:18:00Z,29.5150,-94.5133,1.722,1111122 
TCOON,ioos:station:TCOON:518:1,2017-10-11T05:18:00Z,29.5150,-94.5133,1.758,1111122 
TCOON,ioos:station:TCOON:518:1,2017-10-11T06:18:00Z,29.5150,-94.5133,1.743,1111122 
TCOON,ioos:station:TCOON:518:1,2017-10-11T07:18:00Z,29.5150,-94.5133,1.724,1111122 
TCOON,ioos:station:TCOON:518:1,2017-10-11T08:18:00Z,29.5150,-94.5133,1.7,1111122 
TCOON,ioos:station:TCOON:518:1,2017-10-11T09:18:00Z,29.5150,-94.5133,1.672,1111122 
TCOON,ioos:station:TCOON:518:1,2017-10-11T10:18:00Z,29.5150,-94.5133,1.648,1111122 
TCOON,ioos:station:TCOON:518:1,2017-10-11T11:18:00Z,29.5150,-94.5133,1.616,1111122 
TCOON,ioos:station:TCOON:518:1,2017-10-11T12:18:00Z,29.5150,-94.5133,1.613,1111122 
TCOON,ioos:station:TCOON:518:1,2017-10-11T13:18:00Z,29.5150,-94.5133,1.592,1111122 
TCOON,ioos:station:TCOON:518:1,2017-10-11T14:18:00Z,29.5150,-94.5133,1.593,1111122 
TCOON,ioos:station:TCOON:518:1,2017-10-11T15:18:00Z,29.5150,-94.5133,1.55,1111122 
TCOON,ioos:station:TCOON:518:1,2017-10-11T16:18:00Z,29.5150,-94.5133,1.512,1111122 
TCOON,ioos:station:TCOON:518:1,2017-10-11T17:18:00Z,29.5150,-94.5133,1.49,1111122 
TCOON,ioos:station:TCOON:518:1,2017-10-11T18:18:00Z,29.5150,-94.5133,1.462,1111122 
TCOON,ioos:station:TCOON:518:1,2017-10-11T19:18:00Z,29.5150,-94.5133,1.414,1111122 
TCOON,ioos:station:TCOON:518:1,2017-10-11T20:18:00Z,29.5150,-94.5133,1.351,1111122 
TCOON,ioos:station:TCOON:518:1,2017-10-11T21:18:00Z,29.5150,-94.5133,1.331,1111122 
TCOON,ioos:station:TCOON:518:1,2017-10-11T22:18:00Z,29.5150,-94.5133,1.311,1111122 
TCOON,ioos:station:TCOON:518:1,2017-10-11T23:18:00Z,29.5150,-94.5133,1.286,1111122 
TCOON,ioos:station:TCOON:518:1,2017-10-12T00:18:00Z,29.5150,-94.5133,1.295,1111122 
TCOON,ioos:station:TCOON:518:1,2017-10-12T01:18:00Z,29.5150,-94.5133,1.391,1111122 
TCOON,ioos:station:TCOON:518:1,2017-10-12T02:18:00Z,29.5150,-94.5133,1.496,1111122 
TCOON,ioos:station:TCOON:518:1,2017-10-12T03:18:00Z,29.5150,-94.5133,1.565,1111122 
TCOON,ioos:station:TCOON:518:1,2017-10-12T04:24:00Z,29.5150,-94.5133,1.626,1111122 
TCOON,ioos:station:TCOON:518:1,2017-10-12T05:18:00Z,29.5150,-94.5133,1.668,1111122 
TCOON,ioos:station:TCOON:518:1,2017-10-12T06:18:00Z,29.5150,-94.5133,1.688,1111122 
TCOON,ioos:station:TCOON:518:1,2017-10-12T07:18:00Z,29.5150,-94.5133,1.738,1111122 
TCOON,ioos:station:TCOON:518:1,2017-10-12T08:18:00Z,29.5150,-94.5133,1.759,1111122 
TCOON,ioos:station:TCOON:518:1,2017-10-12T09:18:00Z,29.5150,-94.5133,1.785,1111122 
TCOON,ioos:station:TCOON:518:1,2017-10-12T10:18:00Z,29.5150,-94.5133,1.826,1111122 
TCOON,ioos:station:TCOON:518:1,2017-10-12T11:18:00Z,29.5150,-94.5133,1.835,1111122 
TCOON,ioos:station:TCOON:518:1,2017-10-12T12:18:00Z,29.5150,-94.5133,1.822,1111122 
TCOON,ioos:station:TCOON:518:1,2017-10-12T13:18:00Z,29.5150,-94.5133,1.815,1111122 
TCOON,ioos:station:TCOON:518:1,2017-10-12T14:18:00Z,29.5150,-94.5133,1.781,1111122 
TCOON,ioos:station:TCOON:518:1,2017-10-12T15:18:00Z,29.5150,-94.5133,1.727,1111122 
TCOON,ioos:station:TCOON:518:1,2017-10-12T16:18:00Z,29.5150,-94.5133,1.732,1111122 
TCOON,ioos:station:TCOON:518:1,2017-10-12T17:18:00Z,29.5150,-94.5133,1.734,1111122 
TCOON,ioos:station:TCOON:518:1,2017-10-12T18:18:00Z,29.5150,-94.5133,1.706,1111122 
TCOON,ioos:station:TCOON:518:1,2017-10-12T19:18:00Z,29.5150,-94.5133,1.64,1111122 
TCOON,ioos:station:TCOON:518:1,2017-10-12T20:18:00Z,29.5150,-94.5133,1.569,1111122 
TCOON,ioos:station:TCOON:518:1,2017-10-12T21:18:00Z,29.5150,-94.5133,1.5,1111122 
TCOON,ioos:station:TCOON:518:1,2017-10-12T22:18:00Z,29.5150,-94.5133,1.439,1111122 
TCOON,ioos:station:TCOON:518:1,2017-10-12T23:18:00Z,29.5150,-94.5133,1.404,1111122 